Vorticity
6 7 8 8 9 10 11 6 5 6 7 10 8 5 6 5 6 6 3 -0 -0 2 1 2 3 3 4 4 3 2 2 3 2 2 5 3 3 7 8 7 4 3 4 6 7 7 6 5 6 5 5 6 4 5 8 8 7 4 6 8 6 7 6 6 5 4 4 4 4 3 3 3 4 4 3 4 3 5 5 5 5 4 4 4 4 4 5 8 10 9 7 6 7 6 3 3 4
5 6 6 6 6 9 12 10 9 5 4 8 8 6 7 6 7 7 2 -2 1 5 6 5 3 4 5 3 3 3 2 2 2 2 4 3 3 5 5 6 4 3 4 5 6 5 5 6 4 5 7 6 5 5 6 6 6 7 8 5 6 8 5 4 4 3 3 3 3 4 4 4 4 4 3 4 4 4 4 4 4 4 4 4 4 4 4 5 9 10 9 7 7 8 5 3 4
4 5 4 4 5 6 9 12 12 5 3 6 5 5 7 5 5 7 4 1 2 4 5 4 4 5 3 1 3 5 3 3 2 2 4 4 3 4 5 6 6 4 4 3 4 4 3 4 4 5 5 3 4 5 6 6 5 7 8 6 7 6 2 2 3 2 3 4 5 5 5 5 4 4 4 4 4 4 4 4 4 4 4 4 4 4 4 4 6 9 11 9 7 8 7 3 3
4 5 5 3 4 4 5 9 10 7 7 7 5 6 8 6 4 5 6 5 5 4 4 2 -0 2 5 6 5 4 3 3 2 2 4 5 4 5 5 5 6 5 5 4 3 4 3 4 5 4 4 5 4 5 7 5 2 3 5 7 6 4 3 2 3 4 6 6 6 6 5 5 4 4 4 4 4 4 4 4 4 4 3 4 4 4 5 4 4 6 10 12 10 9 8 4 3
5 6 8 6 6 6 4 6 6 7 9 8 6 6 7 8 7 6 6 5 4 4 4 4 1 0 7 10 7 5 3 3 3 2 2 5 6 5 5 5 5 4 3 4 3 3 4 5 3 3 6 6 2 2 3 2 2 3 4 5 4 3 2 1 4 5 6 7 7 6 6 5 5 5 5 5 5 5 5 5 5 4 4 4 4 4 4 4 4 4 5 10 12 11 10 6 3
7 6 8 7 9 11 7 6 5 4 6 8 5 5 6 6 7 8 7 6 5 6 7 8 5 1 3 5 5 5 6 6 3 1 2 4 6 5 4 5 5 3 2 3 4 4 4 4 2 3 4 3 3 3 2 2 3 3 2 2 3 2 1 2 5 6 7 7 7 6 6 6 6 5 5 5 5 5 5 5 5 6 6 5 5 5 4 4 4 4 3 5 9 12 12 9 5
4 6 7 5 8 12 10 8 8 6 4 6 5 3 5 4 4 7 8 6 6 7 11 11 6 4 4 3 6 8 8 4 1 3 4 3 4 4 3 3 4 4 4 4 4 4 4 4 3 5 3 1 4 4 4 5 5 4 3 3 3 2 3 5 7 7 6 6 6 6 6 6 6 6 5 6 5 5 5 6 6 6 6 6 6 6 6 6 5 5 4 3 4 8 12 11 7
3 4 5 4 5 7 9 10 10 9 6 7 7 6 6 5 2 3 4 4 5 2 5 9 5 6 6 4 8 8 6 3 4 7 6 4 3 4 4 3 4 4 5 4 4 4 5 4 3 4 4 4 5 4 5 6 5 4 3 4 4 5 6 7 7 7 6 6 6 6 6 6 6 6 6 5 5 5 6 6 5 6 6 5 5 5 6 7 8 7 6 5 4 5 8 11 11
4 4 4 3 5 6 7 9 10 10 8 7 9 9 9 8 4 4 3 2 7 5 4 9 7 7 8 5 5 6 5 5 9 10 6 5 4 5 6 5 5 4 4 4 5 6 4 5 4 6 6 6 5 3 4 3 2 3 4 6 6 7 8 8 8 7 7 6 6 6 6 6 5 5 5 5 5 5 5 5 5 5 5 4 4 3 4 5 7 9 9 8 6 4 3 7 11
5 4 4 3 4 8 7 7 9 10 11 9 9 10 11 11 7 5 6 4 5 8 8 12 12 10 9 5 4 5 5 6 9 9 5 5 6 5 5 5 6 5 7 7 6 6 5 5 6 6 5 4 4 4 5 4 5 7 7 8 8 9 9 8 8 7 7 7 6 6 5 5 5 6 5 5 6 5 5 5 5 5 4 4 3 2 2 2 3 4 7 8 9 7 4 4 5
5 4 5 3 3 7 7 5 5 7 10 11 8 8 10 13 12 6 7 8 5 5 4 10 15 12 10 6 4 5 4 5 6 7 7 6 6 6 5 5 4 6 9 8 7 6 5 5 5 6 5 5 7 7 7 7 8 9 9 9 9 9 9 8 7 7 7 7 6 6 6 6 7 7 6 5 5 5 5 4 4 4 4 4 4 4 3 4 3 3 2 3 6 7 9 9 6
7 8 7 4 4 6 4 2 3 4 7 11 8 6 7 11 17 13 8 10 7 8 7 8 14 13 12 9 5 5 4 5 5 8 11 7 5 6 6 6 6 6 8 8 7 6 5 5 5 6 7 8 7 7 7 8 8 9 9 9 8 8 8 8 7 7 7 6 6 6 6 7 9 9 7 6 5 5 4 3 4 4 5 6 6 6 6 6 5 5 4 3 5 4 6 11 10
7 12 9 5 5 5 5 4 4 4 4 7 8 6 6 6 10 13 10 9 6 10 14 9 11 12 10 9 7 7 5 6 6 9 12 8 6 5 5 7 6 5 6 7 6 6 6 6 7 8 8 7 7 7 8 9 8 8 7 7 7 7 7 7 6 6 6 5 5 5 6 8 9 9 8 7 5 5 5 6 7 7 7 8 8 9 9 10 8 7 6 6 7 6 4 7 7
8 13 11 7 5 5 7 7 4 4 4 4 7 8 8 5 3 5 7 8 4 7 12 8 9 11 12 11 9 8 5 6 7 8 10 7 6 6 6 7 6 6 6 7 6 6 7 7 8 9 8 7 8 8 9 9 8 7 7 7 7 7 6 6 6 6 4 4 6 7 7 7 7 7 6 5 5 6 7 8 9 8 8 8 9 9 9 11 11 10 9 8 7 8 6 7 6
7 11 13 11 5 4 6 7 7 6 6 5 6 10 10 8 3 2 4 6 5 4 7 8 8 11 15 14 8 7 6 6 8 9 9 9 8 8 8 8 7 7 6 6 6 7 8 9 9 8 8 8 9 9 10 9 8 8 7 7 7 7 7 6 6 5 6 6 7 7 6 6 6 5 5 5 6 6 6 6 6 6 6 7 7 7 9 10 10 10 9 9 8 8 7 7 7
4 5 8 10 5 3 5 7 9 7 9 7 5 8 10 11 7 3 5 5 7 5 5 9 8 8 12 14 9 7 6 7 8 9 9 9 8 8 8 8 7 6 6 6 8 9 9 9 8 8 8 9 9 9 9 9 8 8 8 8 7 6 6 6 5 6 6 6 6 6 6 5 5 6 6 6 7 6 6 6 6 6 7 8 8 9 13 13 12 10 9 11 10 9 8 7 7
3 4 4 8 7 5 5 5 7 7 9 7 5 6 6 9 6 3 7 5 6 6 3 8 9 6 7 11 11 7 6 7 8 9 8 8 8 7 7 6 6 7 8 9 9 9 8 7 7 8 9 9 8 7 8 8 8 8 8 7 6 5 4 4 5 5 5 5 5 5 6 6 7 8 8 8 9 9 9 9 8 9 9 8 7 9 13 11 10 11 11 11 9 9 8 7 8
3 4 4 7 8 6 5 4 5 6 7 5 5 7 4 7 6 3 7 6 6 6 4 7 9 6 5 9 11 8 7 7 7 8 7 8 8 7 7 6 7 9 9 9 9 8 7 7 8 9 10 9 7 6 6 6 6 5 4 4 4 4 4 5 5 5 5 5 5 6 7 8 9 9 10 10 11 11 10 10 9 11 14 11 8 10 11 10 10 11 11 9 8 9 9 8 10
2 2 3 7 9 8 6 6 6 6 7 5 4 6 4 5 7 4 5 6 7 6 5 7 7 6 4 7 10 7 6 7 7 7 8 9 9 8 8 8 8 9 9 9 8 7 7 8 10 11 10 7 5 5 4 4 4 3 4 4 5 5 5 5 5 5 5 6 6 7 7 7 8 9 9 9 9 9 8 8 7 9 13 14 10 8 9 9 10 11 10 11 11 11 10 10 10
4 3 3 6 8 6 3 4 7 6 6 7 6 6 5 5 6 6 6 7 8 6 5 5 6 7 4 5 8 6 6 7 6 6 7 8 9 10 11 11 10 9 8 8 7 7 8 10 11 9 7 6 5 4 4 4 4 4 5 6 6 6 7 6 6 6 6 6 6 6 6 6 6 6 7 7 7 6 6 6 6 5 8 11 10 8 9 9 10 10 9 11 13 14 14 13 11
7 6 3 6 6 3 3 4 6 7 5 6 9 9 8 8 6 8 8 7 7 6 6 6 6 8 6 6 7 6 7 7 7 7 7 8 9 10 11 12 10 9 8 8 8 9 10 9 8 7 5 5 5 5 5 6 7 7 7 7 6 6 6 6 6 6 6 6 6 6 6 5 6 6 6 6 6 6 6 6 6 5 6 7 8 8 8 8 10 11 10 9 9 10 11 12 12
6 4 2 4 4 4 4 5 7 7 5 4 8 10 11 11 9 10 9 6 6 7 7 7 6 7 8 8 7 7 7 8 8 7 8 10 10 9 9 10 10 10 9 9 9 10 9 7 6 5 5 6 6 6 7 7 7 6 5 5 5 5 4 4 5 5 5 6 6 6 6 6 6 6 6 6 6 7 7 7 6 6 6 6 7 7 7 7 7 9 8 7 7 8 8 9 10
2 2 3 3 2 5 6 6 7 7 5 4 7 10 11 12 11 10 9 7 7 8 8 7 7 7 7 7 8 7 7 8 8 9 9 10 10 10 10 11 11 11 9 8 9 8 7 5 5 5 6 8 7 6 5 5 4 4 4 4 4 4 4 4 5 6 6 7 7 8 7 6 6 5 6 6 6 6 6 6 6 6 6 6 6 6 6 6 6 7 9 10 11 10 10 10 11
2 4 2 2 0 3 9 8 6 7 5 3 6 9 11 11 9 9 9 8 8 9 9 8 8 8 7 6 7 7 8 7 7 9 10 9 9 9 11 11 11 11 9 8 7 6 6 5 5 5 6 6 5 4 3 3 4 3 4 5 5 5 5 6 6 7 7 8 8 7 7 7 6 5 5 6 5 5 5 5 5 6 6 6 6 6 5 6 7 7 9 10 10 8 8 9 9
3 5 0 1 -1 1 11 8 4 6 6 5 5 7 9 9 7 8 9 8 8 9 10 9 9 9 7 7 7 6 6 7 7 8 9 8 7 7 8 10 10 9 8 7 6 6 6 5 5 5 5 4 3 4 3 3 4 4 5 5 6 6 6 6 6 7 7 7 7 7 7 7 6 6 5 5 5 5 6 5 5 6 6 6 6 6 5 5 6 6 5 5 4 4 5 5 5
2 5 3 2 -2 -1 9 8 4 4 6 9 4 5 9 7 5 7 9 8 8 8 9 10 10 10 9 7 7 7 6 7 8 8 9 8 7 7 8 9 10 9 9 8 7 6 6 5 4 4 4 3 3 4 4 4 5 5 5 5 5 6 6 6 6 7 7 6 7 6 6 7 6 6 5 5 4 5 7 7 6 7 6 6 6 5 5 4 4 4 3 3 2 2 2 3 3
-1 2 5 4 -1 -1 6 8 6 3 6 9 4 5 9 7 5 4 6 8 8 8 9 9 10 11 11 9 7 7 7 7 7 8 9 9 8 9 9 10 10 10 9 8 7 6 5 4 4 4 4 3 3 4 4 5 6 6 5 5 5 5 5 5 5 5 6 5 6 6 6 6 6 5 5 5 4 4 6 6 6 7 7 6 6 5 5 4 4 3 3 3 3 3 3 3 4
-5 -3 4 9 6 -0 4 9 7 3 6 10 6 4 5 6 6 4 5 6 6 7 8 9 10 11 12 11 9 8 8 7 7 8 9 9 8 9 9 10 10 9 8 7 7 5 4 4 3 3 3 4 3 3 5 6 6 6 5 5 4 4 5 4 5 5 5 5 5 6 7 6 6 5 5 5 4 4 6 6 6 6 6 6 5 5 5 4 4 4 4 4 3 4 4 4 4
-6 -3 2 8 8 0 2 11 8 3 8 12 8 4 3 3 2 3 5 5 5 5 6 8 8 9 12 13 11 8 8 8 7 7 7 7 7 7 7 8 7 7 7 6 5 4 4 4 4 4 4 4 4 4 5 6 6 6 5 5 5 5 5 4 4 4 4 4 5 6 7 7 6 5 6 6 5 5 5 6 6 5 4 5 5 5 4 4 4 4 4 3 3 3 3 3 3
0 -0 0 5 9 4 2 10 10 5 8 10 9 10 10 8 4 2 5 5 6 4 3 6 7 7 10 13 14 10 8 9 8 8 7 7 7 6 6 7 7 6 5 5 5 4 5 5 5 5 5 4 4 5 5 6 5 4 4 5 5 5 5 5 4 4 4 4 4 4 5 6 5 5 6 6 7 7 4 4 5 4 4 4 4 4 4 4 4 3 3 2 3 2 2 3 3
7 2 1 5 7 5 6 10 8 4 7 9 10 11 10 11 10 6 6 6 8 8 3 2 5 6 7 10 13 12 9 9 9 9 8 8 8 6 6 6 6 6 6 5 5 5 5 5 5 5 5 5 4 5 5 5 4 3 3 4 4 5 4 4 5 5 5 4 4 4 4 5 5 6 5 5 7 6 4 4 4 4 4 3 4 4 4 4 4 3 3 3 3 3 3 3 3
10 4 3 9 6 1 7 10 5 2 7 9 7 7 4 6 8 7 7 6 7 10 8 3 2 4 6 8 10 12 12 10 9 9 9 9 8 7 6 6 6 6 6 7 6 5 5 5 5 5 5 5 4 4 4 4 4 3 3 4 5 6 6 6 6 7 7 6 5 4 4 4 5 6 5 5 6 5 4 5 5 4 4 4 4 4 4 4 5 5 4 4 4 4 5 5 5
10 6 4 11 9 5 9 7 3 3 7 7 5 5 2 0 4 7 7 7 5 6 8 8 5 2 4 7 8 9 11 11 10 10 10 9 8 7 5 5 6 6 6 7 8 6 5 5 5 5 5 5 4 4 4 3 4 4 5 7 8 8 8 8 8 9 9 8 7 6 5 5 5 5 5 5 5 5 5 5 5 5 5 5 5 5 5 5 5 6 5 6 5 5 5 6 6
10 9 10 9 5 11 16 10 6 4 4 7 7 5 2 -1 3 6 7 7 6 5 5 8 8 5 4 4 6 7 9 11 11 10 11 9 7 7 6 5 5 7 7 7 8 8 6 5 4 5 5 4 4 3 3 4 4 6 8 9 9 8 9 9 10 10 10 9 8 7 6 6 7 6 6 6 6 5 5 5 5 5 5 5 5 5 5 5 5 5 6 5 5 5 5 6 6
6 10 13 7 3 7 9 9 7 3 3 7 8 6 2 1 2 4 6 5 5 6 5 5 6 7 6 4 3 5 7 9 11 11 12 11 9 7 7 7 6 7 8 7 7 8 8 6 5 5 5 4 3 2 3 5 5 8 9 9 8 8 8 9 9 8 8 8 8 7 7 7 8 8 7 6 6 6 5 5 5 5 6 5 5 5 5 5 5 5 5 5 6 5 5 6 6
6 9 8 4 12 14 6 6 4 0 3 5 6 7 6 5 3 2 2 1 2 5 8 8 6 6 7 5 3 3 4 7 8 9 10 11 10 10 9 8 8 7 7 7 6 7 8 8 7 5 4 3 2 3 5 7 7 9 8 6 6 6 7 7 7 6 5 5 5 5 6 6 6 6 6 6 6 5 5 5 5 5 6 6 6 6 6 6 5 6 6 6 6 6 6 7 6
8 11 11 4 12 18 11 9 6 4 6 4 6 8 7 7 5 3 3 4 5 4 6 8 6 5 6 7 6 3 3 4 5 6 8 10 9 9 9 8 8 7 6 6 6 7 8 8 8 6 4 3 4 6 8 8 8 7 5 5 5 4 4 4 4 4 3 4 4 4 4 4 5 5 5 5 6 6 6 5 5 5 5 6 7 7 7 7 7 7 7 7 7 7 7 7 6
8 7 14 10 6 12 13 10 8 7 7 5 7 6 4 5 5 4 4 6 9 9 8 6 4 5 5 6 8 7 5 3 2 4 5 8 9 9 9 10 9 9 9 9 8 8 8 8 8 7 6 5 7 8 8 8 7 5 5 5 4 3 3 3 3 3 3 3 4 4 4 4 4 4 3 4 5 5 6 5 5 5 4 4 5 6 7 8 9 9 8 8 7 7 7 6 5
9 3 10 13 5 5 8 3 2 5 4 2 3 3 4 5 4 3 3 2 7 10 10 7 5 7 5 3 5 7 8 5 2 4 3 4 6 8 10 10 10 11 11 11 11 10 10 10 9 8 8 7 7 8 7 7 5 4 5 4 3 3 2 3 3 3 3 3 3 3 4 4 4 4 3 3 3 3 3 3 3 2 2 2 4 5 6 7 8 9 9 9 8 7 7 6 5
12 6 8 13 6 4 5 1 1 4 2 -1 -2 2 4 4 4 5 6 2 2 6 9 9 7 6 4 2 4 6 6 8 6 4 3 3 3 5 7 8 8 9 10 9 10 11 11 10 9 8 8 7 6 7 7 6 4 4 5 3 2 2 2 3 3 4 4 3 3 3 3 3 3 3 3 3 3 3 3 3 3 3 3 3 3 5 7 8 9 9 10 9 9 8 7 6 5
11 7 8 13 9 6 6 1 -0 2 4 1 -2 -0 3 4 4 4 8 5 2 5 8 9 10 7 4 4 6 6 5 7 8 5 5 6 4 3 4 5 5 5 6 7 7 9 10 9 9 8 8 7 6 6 5 5 5 4 3 2 2 2 3 3 3 3 3 2 1 2 2 3 4 4 4 4 4 4 4 4 4 4 4 4 4 5 8 9 9 11 11 9 8 8 7 6 5
7 9 9 14 13 8 5 2 -0 1 4 3 0 2 2 2 4 3 6 7 3 6 10 11 14 12 7 4 5 5 6 7 7 6 6 6 6 5 4 4 5 5 4 4 4 6 7 7 7 7 7 6 5 5 4 3 4 3 3 2 2 2 3 3 3 2 1 0 0 1 2 2 3 6 7 6 6 6 6 6 5 5 5 4 4 5 8 9 9 10 10 9 8 7 7 6 5
6 9 9 16 14 7 4 2 2 1 1 2 4 7 2 -4 -1 -3 -2 -0 -2 4 8 7 13 16 11 9 10 9 9 9 8 7 5 5 7 8 6 4 4 4 4 4 3 3 4 5 5 5 5 5 5 5 4 4 3 3 3 2 2 2 2 3 3 2 0 0 1 2 2 2 3 8 10 9 7 7 7 7 6 6 6 5 5 6 9 9 9 10 10 8 8 8 7 6 6
5 5 9 15 9 8 9 1 2 3 -4 -2 4 8 3 -6 -7 -7 -5 -1 -2 0 3 7 16 17 10 8 9 11 12 11 11 11 7 4 5 6 7 7 5 5 5 5 3 2 3 4 3 3 4 4 4 4 4 4 4 4 3 3 3 3 3 3 2 2 2 1 1 2 3 4 7 9 11 10 9 8 8 7 7 7 7 6 6 7 10 11 9 9 10 9 9 8 6 6 6
1 0 6 13 6 8 12 1 -1 0 -4 -0 2 2 2 -1 -2 -3 -2 -1 -2 -2 1 10 17 12 8 9 5 4 8 11 12 13 10 6 5 5 5 6 8 8 7 6 5 4 4 4 3 3 3 3 4 4 4 5 5 5 5 4 4 4 4 4 3 2 2 2 3 5 7 10 10 9 10 11 10 10 9 9 9 8 7 7 7 10 11 10 9 9 10 10 9 8 6 6 6
-4 -2 2 10 7 3 4 1 -3 -3 2 6 3 -0 2 6 5 -1 -2 -1 -1 3 2 5 7 3 7 13 9 6 7 11 14 13 12 10 7 5 4 5 7 8 6 5 6 6 5 4 3 3 3 3 4 4 4 4 5 4 4 3 3 4 5 5 6 6 7 9 10 11 13 13 10 9 10 10 10 10 9 9 8 8 8 8 9 12 12 9 8 10 9 9 9 7 6 5 6
-8 -3 -2 4 10 4 -1 1 -4 -3 7 7 -0 -1 1 7 9 -3 -4 7 8 3 -2 -2 -0 1 5 5 4 10 11 8 10 12 13 12 10 8 7 6 5 5 3 2 4 5 5 5 5 6 6 6 6 5 5 5 5 4 4 5 6 7 10 12 13 14 14 14 14 15 14 12 9 8 8 9 9 8 8 8 8 9 9 9 11 13 11 8 10 11 9 9 7 6 6 6 7
-6 0 -1 -3 6 7 1 0 -3 -2 5 -1 -10 -6 -5 6 27 21 6 11 14 1 -6 -3 -1 3 9 5 -1 6 12 8 5 8 10 11 12 13 13 11 6 4 4 4 5 5 6 6 6 7 9 9 9 7 7 7 6 8 8 8 8 10 13 15 15 14 12 12 13 12 11 9 7 7 7 7 7 8 8 8 8 9 8 9 12 14 10 9 11 12 9 8 6 5 6 7 7
-5 1 2 -2 2 6 2 1 1 2 4 -3 -11 -3 -1 2 29 37 12 7 11 1 2 7 1 2 8 7 -0 -0 8 9 2 3 7 7 10 14 18 19 15 11 9 9 10 10 8 5 3 4 6 7 7 7 7 8 10 10 8 6 8 11 12 12 11 9 8 10 11 10 8 7 5 5 6 6 6 7 7 8 8 7 8 9 11 11 8 7 10 11 8 7 6 6 7 7 6
-1 3 5 1 1 5 6 1 1 2 3 2 -4 1 9 10 24 28 9 9 10 1 11 12 -4 -1 6 1 -0 4 9 8 1 2 5 5 7 11 14 19 19 15 11 9 9 8 5 2 1 3 5 6 5 4 6 10 11 8 5 5 9 10 10 9 8 7 7 8 9 8 6 4 4 5 6 6 7 8 7 7 7 6 6 9 10 9 6 4 6 9 9 6 6 6 7 7 6
-3 1 5 3 -3 2 8 3 1 -0 -3 0 -2 -0 12 20 27 23 9 9 4 -2 12 7 -11 -3 3 -4 1 11 11 7 5 6 6 8 11 11 9 12 14 13 11 9 7 6 5 3 3 5 7 6 6 10 13 12 9 5 5 7 8 8 8 8 7 7 7 7 6 6 5 4 4 5 6 6 7 8 8 7 6 6 7 9 10 9 5 2 4 9 8 6 6 7 7 6 5
-6 -3 3 3 -3 -0 8 7 3 1 -2 -1 -2 -2 -2 -7 -0 14 14 10 2 -1 5 3 -1 4 -1 -5 5 10 3 -0 4 6 7 12 14 9 6 8 10 10 10 11 10 11 11 10 10 10 8 7 7 14 17 12 7 6 7 7 6 6 5 5 5 5 6 6 5 5 5 5 5 5 5 6 7 8 9 9 7 6 8 9 10 10 6 3 4 7 7 6 7 7 6 6 5
-1 -1 1 4 2 -1 4 8 5 2 1 1 -1 -2 -9 -20 -14 0 2 1 3 5 6 3 6 6 -2 -2 9 14 7 2 4 5 5 9 7 0 1 5 8 10 11 12 12 11 11 12 15 15 14 13 12 13 13 10 8 8 7 6 6 4 4 4 5 4 4 5 5 6 7 7 7 7 6 4 4 5 7 8 8 7 8 9 11 10 9 5 4 7 8 6 7 7 6 6 6
-1 -4 -2 7 6 -3 0 7 6 1 -1 -1 2 0 -7 -6 1 -3 -9 -5 -1 3 8 7 6 10 12 11 15 20 13 5 5 3 1 6 4 -1 2 4 6 9 11 13 13 12 13 13 15 16 16 15 12 9 8 8 9 7 6 6 5 3 4 5 5 6 7 7 8 9 9 8 5 7 9 6 2 2 4 7 8 7 7 8 10 12 11 6 3 6 10 8 7 7 6 6 7
0 -6 -2 6 3 -5 -2 3 4 3 -1 -3 1 2 -1 2 4 -3 -6 2 4 5 12 12 7 11 14 11 13 18 13 7 6 2 3 8 5 2 7 9 7 8 10 10 12 14 16 15 14 15 13 11 9 8 9 10 9 7 6 5 5 4 5 6 7 8 9 10 10 10 10 10 9 9 10 8 4 -1 1 8 9 6 6 7 10 12 11 5 0 5 10 8 5 6 6 6 6
4 -1 0 2 -2 -3 -3 -2 3 7 3 1 -0 -1 2 5 4 3 2 1 1 4 10 6 0 5 6 4 9 10 8 9 6 4 9 10 2 0 7 9 7 7 10 10 11 12 14 13 11 11 12 12 13 13 12 10 7 5 6 4 5 4 3 6 7 4 4 6 7 6 7 9 10 9 8 8 9 3 0 8 11 6 5 8 8 10 10 5 1 5 7 6 6 6 6 6 6
6 4 4 1 -3 -2 -2 -4 2 6 3 2 1 -4 -3 1 2 6 5 0 -3 1 9 8 2 4 6 8 10 6 7 14 11 8 10 5 -1 1 5 7 5 5 9 11 11 14 15 13 10 11 12 11 12 10 7 6 5 5 5 4 6 6 4 6 8 3 1 4 7 4 2 5 5 4 5 8 14 13 4 5 12 8 5 7 6 8 9 5 6 7 5 5 7 6 6 6 6
5 3 5 7 1 -2 1 -2 -1 5 4 0 1 -3 -6 -0 5 7 5 1 -2 -1 10 18 11 4 3 6 7 -0 4 16 12 5 6 2 -2 -1 2 6 7 6 8 11 14 18 18 15 12 11 11 9 8 7 5 5 4 4 5 6 9 4 -1 2 5 2 2 7 11 9 8 9 3 -3 4 12 17 18 11 6 13 12 7 8 8 9 9 6 9 9 3 6 8 5 4 4 6
Height
5907 5906 5906 5906 5906 5906 5906 5906 5906 5906 5906 5907 5907 5906 5906 5905 5905 5905 5905 5905 5906 5906 5906 5906 5906 5906 5906 5906 5906 5904 5905 5906 5906 5907 5908 5910 5910 5910 5910 5910 5911 5912 5912 5912 5912 5913 5914 5914 5914 5914 5914 5915 5916 5915 5914 5914 5916 5916 5916 5917 5917 5918 5918 5918 5918 5918 5918 5920 5920 5920 5920 5920 5920 5920 5920 5920 5920 5920 5920 5918 5918 5918 5917 5916 5916 5916 5916 5916 5916 5916 5916 5916 5915 5915 5915 5916 5916
5908 5908 5907 5907 5907 5908 5908 5908 5908 5907 5907 5908 5908 5907 5906 5906 5906 5906 5906 5906 5906 5906 5907 5908 5908 5908 5908 5908 5907 5906 5906 5907 5907 5907 5908 5910 5910 5911 5912 5912 5912 5913 5913 5914 5914 5914 5915 5915 5915 5915 5915 5915 5915 5915 5914 5915 5916 5917 5917 5918 5918 5918 5919 5919 5918 5918 5920 5922 5922 5922 5921 5920 5920 5920 5920 5920 5920 5920 5920 5919 5918 5918 5918 5917 5917 5917 5916 5916 5916 5916 5916 5915 5915 5916 5916 5916 5916
5909 5909 5908 5908 5908 5909 5909 5909 5909 5908 5908 5908 5908 5908 5908 5907 5906 5907 5908 5908 5908 5908 5908 5908 5909 5910 5909 5909 5908 5908 5908 5908 5908 5908 5909 5910 5911 5912 5912 5913 5914 5914 5914 5914 5915 5915 5916 5916 5916 5915 5915 5915 5916 5916 5916 5916 5916 5917 5918 5918 5918 5918 5920 5920 5919 5920 5922 5923 5923 5922 5922 5921 5920 5920 5920 5920 5920 5920 5920 5919 5918 5918 5918 5918 5918 5917 5917 5916 5916 5916 5916 5916 5916 5916 5916 5916 5916
5910 5910 5910 5910 5910 5910 5910 5910 5910 5910 5909 5909 5909 5909 5909 5908 5908 5908 5908 5909 5910 5910 5910 5910 5910 5910 5910 5910 5909 5909 5910 5910 5908 5908 5910 5911 5912 5912 5913 5914 5914 5914 5915 5915 5916 5916 5916 5916 5916 5916 5916 5916 5917 5918 5918 5918 5917 5917 5918 5918 5918 5920 5921 5921 5920 5921 5923 5924 5923 5922 5922 5921 5921 5921 5921 5921 5920 5920 5920 5920 5919 5918 5918 5918 5918 5918 5917 5917 5917 5916 5916 5916 5916 5916 5916 5916 5917
5911 5911 5910 5910 5911 5911 5912 5912 5911 5910 5910 5910 5910 5910 5910 5910 5908 5908 5908 5909 5910 5910 5911 5911 5910 5910 5910 5910 5910 5910 5910 5910 5910 5909 5910 5912 5912 5913 5914 5914 5915 5916 5916 5916 5916 5916 5916 5916 5916 5917 5918 5918 5918 5918 5918 5918 5918 5918 5918 5918 5919 5920 5922 5921 5920 5922 5923 5924 5923 5922 5922 5921 5921 5921 5921 5921 5921 5920 5920 5920 5919 5919 5918 5918 5918 5918 5918 5918 5917 5917 5916 5916 5916 5916 5916 5917 5918
5912 5912 5912 5912 5912 5912 5912 5912 5912 5912 5912 5911 5910 5910 5910 5910 5909 5909 5909 5910 5910 5910 5911 5912 5912 5910 5910 5910 5911 5911 5912 5912 5912 5911 5910 5912 5913 5914 5914 5915 5916 5916 5916 5916 5917 5917 5917 5917 5918 5918 5918 5918 5918 5918 5918 5918 5919 5919 5919 5920 5920 5921 5920 5920 5921 5922 5923 5923 5922 5922 5922 5922 5922 5922 5922 5922 5921 5920 5920 5920 5920 5919 5918 5918 5918 5918 5918 5918 5917 5917 5916 5916 5916 5916 5916 5916 5917
5912 5912 5912 5912 5912 5913 5913 5912 5913 5912 5912 5912 5911 5911 5911 5910 5910 5910 5910 5910 5910 5910 5911 5912 5912 5912 5911 5911 5912 5912 5912 5912 5913 5913 5912 5912 5914 5915 5915 5916 5916 5916 5917 5917 5918 5918 5918 5918 5918 5918 5918 5919 5919 5919 5919 5919 5920 5920 5920 5921 5921 5921 5920 5921 5922 5923 5923 5922 5922 5922 5922 5922 5922 5922 5922 5921 5921 5920 5920 5920 5920 5919 5918 5918 5918 5918 5918 5917 5916 5916 5916 5916 5916 5917 5916 5916 5917
5914 5914 5914 5914 5913 5914 5914 5914 5914 5914 5913 5913 5912 5912 5912 5911 5910 5910 5910 5910 5910 5911 5912 5912 5912 5912 5912 5912 5912 5912 5913 5914 5914 5914 5914 5914 5914 5916 5916 5916 5916 5917 5918 5918 5918 5918 5918 5918 5918 5919 5918 5919 5919 5920 5920 5920 5920 5921 5922 5922 5921 5921 5922 5922 5922 5922 5922 5922 5922 5922 5922 5922 5922 5922 5921 5921 5920 5920 5920 5920 5920 5920 5918 5918 5917 5918 5917 5917 5917 5916 5916 5916 5917 5917 5917 5916 5916
5914 5914 5914 5914 5914 5914 5914 5914 5914 5914 5914 5914 5914 5914 5912 5912 5910 5910 5910 5910 5911 5912 5912 5912 5913 5913 5912 5912 5912 5913 5914 5914 5915 5915 5915 5915 5916 5916 5917 5918 5918 5918 5918 5918 5918 5918 5918 5918 5919 5919 5919 5919 5920 5920 5920 5921 5922 5922 5922 5922 5922 5922 5922 5922 5922 5922 5922 5922 5922 5922 5922 5922 5922 5922 5921 5921 5921 5921 5921 5920 5920 5920 5918 5918 5918 5918 5918 5918 5918 5917 5916 5916 5917 5917 5916 5916 5916
5916 5915 5915 5914 5914 5915 5914 5914 5915 5915 5915 5914 5914 5914 5914 5912 5912 5911 5910 5910 5911 5912 5912 5912 5913 5913 5913 5913 5913 5914 5914 5914 5916 5916 5916 5916 5916 5917 5918 5918 5918 5918 5919 5919 5919 5919 5919 5920 5920 5920 5920 5920 5920 5921 5921 5922 5922 5922 5922 5922 5922 5922 5922 5922 5922 5922 5923 5923 5922 5922 5922 5922 5922 5921 5921 5921 5921 5921 5921 5921 5920 5920 5918 5918 5918 5918 5918 5918 5918 5918 5918 5917 5916 5916 5916 5916 5916
5916 5916 5916 5915 5915 5916 5916 5915 5915 5915 5916 5916 5915 5914 5914 5914 5912 5912 5911 5911 5911 5912 5912 5912 5914 5913 5913 5913 5914 5914 5914 5915 5916 5916 5917 5917 5918 5918 5918 5918 5919 5919 5920 5920 5920 5920 5920 5920 5920 5920 5921 5921 5922 5922 5922 5922 5922 5922 5922 5922 5922 5923 5923 5923 5923 5923 5923 5923 5923 5922 5922 5922 5922 5922 5922 5922 5922 5922 5922 5921 5920 5920 5919 5919 5920 5920 5920 5920 5920 5920 5918 5918 5916 5916 5917 5918 5917
5917 5917 5916 5916 5916 5916 5916 5916 5916 5915 5916 5916 5915 5914 5914 5914 5913 5912 5912 5911 5911 5912 5912 5913 5914 5914 5914 5914 5914 5914 5914 5916 5916 5917 5918 5918 5918 5918 5918 5918 5919 5919 5920 5920 5920 5920 5920 5921 5921 5922 5922 5922 5922 5922 5922 5922 5922 5922 5922 5923 5923 5924 5924 5924 5924 5924 5924 5923 5923 5922 5922 5922 5922 5922 5922 5922 5922 5922 5922 5921 5920 5920 5920 5920 5920 5922 5922 5921 5920 5920 5918 5918 5917 5916 5918 5919 5918
5918 5918 5918 5917 5916 5916 5916 5916 5916 5916 5915 5916 5915 5915 5914 5914 5913 5912 5912 5912 5912 5912 5913 5913 5914 5914 5914 5914 5914 5914 5914 5916 5916 5917 5918 5918 5918 5918 5918 5918 5918 5919 5920 5920 5920 5921 5922 5922 5922 5922 5922 5922 5922 5922 5922 5922 5922 5922 5923 5924 5924 5924 5924 5924 5924 5924 5924 5924 5923 5923 5922 5922 5922 5922 5922 5922 5922 5922 5922 5921 5920 5920 5920 5920 5921 5922 5922 5920 5920 5920 5918 5918 5918 5917 5917 5918 5918
5918 5918 5918 5918 5917 5916 5916 5916 5916 5916 5916 5916 5916 5916 5915 5914 5913 5912 5912 5912 5912 5912 5913 5913 5914 5914 5914 5914 5914 5914 5914 5916 5916 5917 5918 5918 5918 5918 5918 5918 5919 5920 5920 5920 5921 5922 5922 5922 5922 5922 5922 5922 5923 5923 5923 5923 5923 5923 5924 5924 5924 5924 5924 5924 5924 5924 5924 5924 5924 5924 5924 5923 5923 5923 5923 5923 5922 5922 5922 5921 5920 5920 5920 5922 5922 5922 5920 5920 5919 5919 5918 5918 5917 5916 5916 5916 5917
5918 5918 5918 5918 5918 5916 5916 5916 5916 5916 5916 5916 5916 5916 5916 5915 5914 5912 5912 5912 5912 5912 5912 5914 5914 5914 5915 5914 5914 5914 5915 5916 5916 5917 5918 5918 5918 5918 5918 5918 5919 5920 5920 5921 5922 5922 5922 5922 5922 5922 5923 5923 5924 5924 5924 5924 5924 5924 5924 5924 5924 5924 5924 5924 5924 5924 5924 5924 5924 5924 5924 5924 5924 5924 5924 5924 5923 5922 5922 5921 5920 5920 5922 5922 5922 5920 5920 5919 5918 5918 5918 5917 5916 5916 5916 5916 5916
5918 5918 5918 5918 5918 5916 5916 5917 5916 5916 5916 5916 5916 5916 5916 5915 5914 5912 5912 5912 5912 5912 5912 5914 5914 5914 5915 5915 5914 5914 5915 5916 5916 5917 5918 5918 5918 5918 5918 5919 5920 5920 5920 5921 5922 5922 5922 5922 5922 5923 5924 5924 5924 5924 5924 5924 5924 5924 5924 5924 5924 5924 5925 5925 5925 5925 5925 5924 5924 5924 5924 5924 5924 5924 5924 5924 5924 5922 5922 5921 5920 5920 5922 5923 5920 5920 5920 5919 5918 5918 5917 5916 5916 5916 5915 5916 5916
5918 5918 5918 5918 5918 5917 5917 5917 5916 5916 5916 5916 5916 5916 5916 5916 5914 5912 5913 5913 5913 5913 5913 5914 5915 5915 5915 5916 5915 5914 5915 5916 5916 5917 5918 5918 5918 5918 5919 5919 5920 5920 5921 5922 5922 5922 5922 5922 5923 5924 5924 5924 5924 5924 5924 5924 5924 5925 5925 5925 5925 5926 5926 5926 5926 5926 5925 5925 5925 5925 5925 5925 5925 5924 5924 5924 5924 5923 5922 5922 5920 5920 5924 5924 5920 5919 5920 5918 5918 5918 5917 5916 5916 5916 5915 5915 5914
5919 5919 5918 5918 5918 5918 5918 5917 5916 5916 5916 5916 5916 5916 5916 5916 5914 5913 5914 5914 5914 5914 5914 5915 5916 5915 5915 5916 5916 5915 5916 5916 5916 5917 5918 5918 5918 5918 5919 5920 5920 5920 5921 5922 5922 5922 5922 5923 5924 5924 5924 5924 5924 5924 5925 5925 5926 5926 5926 5926 5926 5926 5926 5926 5926 5926 5926 5926 5926 5926 5926 5926 5926 5926 5925 5924 5924 5924 5922 5922 5920 5921 5924 5924 5920 5918 5918 5918 5918 5918 5917 5916 5916 5916 5916 5915 5914
5919 5919 5919 5918 5918 5918 5918 5918 5917 5916 5916 5916 5916 5916 5916 5916 5916 5914 5914 5914 5914 5914 5914 5916 5916 5915 5915 5916 5916 5916 5916 5916 5917 5918 5918 5918 5918 5919 5920 5920 5920 5921 5922 5922 5922 5922 5923 5924 5924 5924 5924 5924 5925 5926 5926 5926 5926 5926 5926 5926 5926 5927 5927 5926 5926 5926 5926 5926 5926 5926 5926 5926 5926 5926 5926 5925 5924 5924 5923 5922 5921 5921 5923 5924 5921 5919 5918 5918 5918 5918 5918 5917 5917 5916 5916 5916 5915
5919 5919 5919 5919 5918 5918 5918 5918 5918 5917 5916 5916 5916 5916 5916 5916 5916 5916 5914 5914 5914 5914 5915 5916 5916 5916 5915 5916 5916 5916 5916 5917 5918 5918 5918 5919 5919 5920 5920 5920 5921 5922 5922 5922 5922 5923 5924 5924 5924 5925 5925 5926 5926 5926 5927 5927 5927 5927 5927 5927 5927 5928 5928 5928 5928 5928 5928 5927 5927 5927 5926 5926 5926 5926 5926 5925 5924 5924 5923 5922 5922 5921 5922 5923 5922 5920 5920 5919 5918 5918 5918 5918 5918 5917 5916 5916 5915
5919 5919 5918 5918 5918 5918 5918 5918 5918 5918 5916 5916 5916 5916 5916 5917 5916 5916 5916 5915 5916 5916 5916 5916 5916 5916 5916 5916 5916 5916 5917 5918 5918 5918 5919 5920 5920 5920 5920 5921 5922 5922 5922 5922 5923 5924 5924 5924 5925 5926 5926 5927 5927 5928 5928 5928 5928 5928 5928 5928 5928 5928 5928 5928 5928 5928 5928 5928 5928 5928 5927 5927 5926 5926 5926 5926 5925 5924 5924 5922 5922 5921 5921 5922 5922 5922 5920 5920 5920 5920 5920 5919 5918 5918 5917 5916 5916
5919 5918 5918 5918 5918 5918 5918 5918 5918 5918 5917 5916 5916 5916 5917 5918 5918 5917 5916 5916 5916 5916 5916 5916 5916 5916 5916 5916 5916 5917 5918 5918 5918 5919 5920 5920 5920 5920 5921 5922 5922 5922 5922 5923 5924 5924 5925 5926 5926 5926 5928 5928 5928 5928 5928 5928 5928 5928 5928 5928 5929 5929 5929 5929 5929 5929 5929 5928 5928 5928 5928 5928 5927 5926 5926 5926 5926 5924 5924 5924 5922 5922 5922 5922 5922 5922 5922 5920 5920 5920 5919 5919 5918 5918 5918 5916 5916
5918 5918 5918 5918 5918 5918 5918 5918 5918 5918 5918 5917 5917 5917 5918 5918 5918 5918 5917 5916 5916 5917 5917 5916 5916 5917 5917 5917 5918 5918 5918 5918 5919 5920 5920 5920 5920 5921 5922 5922 5922 5922 5923 5924 5924 5925 5926 5926 5927 5928 5928 5928 5928 5928 5929 5929 5929 5929 5930 5930 5930 5930 5930 5930 5930 5930 5929 5929 5928 5928 5928 5928 5928 5927 5926 5926 5926 5926 5925 5924 5924 5922 5922 5922 5922 5922 5922 5922 5920 5920 5920 5919 5919 5918 5918 5916 5916
5918 5918 5918 5918 5918 5919 5920 5919 5918 5918 5918 5918 5918 5918 5918 5918 5918 5918 5918 5917 5918 5918 5918 5917 5917 5917 5918 5918 5918 5918 5918 5919 5920 5920 5920 5920 5921 5922 5922 5922 5922 5923 5924 5924 5925 5926 5926 5927 5928 5928 5928 5929 5929 5929 5930 5930 5930 5930 5930 5930 5930 5930 5930 5930 5930 5930 5930 5929 5929 5928 5928 5928 5928 5928 5927 5926 5926 5926 5925 5924 5924 5924 5923 5922 5922 5922 5922 5922 5921 5921 5920 5920 5919 5918 5918 5917 5916
5918 5918 5918 5918 5918 5919 5920 5920 5919 5919 5918 5918 5918 5918 5918 5918 5918 5918 5918 5918 5918 5918 5918 5918 5918 5917 5918 5918 5918 5919 5919 5920 5920 5920 5921 5921 5922 5922 5922 5922 5923 5924 5924 5925 5926 5926 5927 5928 5928 5928 5929 5930 5930 5930 5930 5930 5930 5930 5930 5930 5930 5930 5930 5930 5930 5930 5930 5930 5929 5929 5928 5928 5928 5928 5927 5927 5926 5926 5926 5925 5925 5924 5924 5924 5923 5922 5922 5922 5922 5921 5921 5920 5920 5919 5918 5918 5917
5918 5918 5918 5918 5918 5918 5920 5920 5920 5919 5919 5918 5918 5918 5919 5920 5919 5919 5919 5919 5919 5918 5918 5918 5918 5918 5918 5918 5918 5919 5920 5920 5920 5920 5921 5922 5922 5922 5922 5924 5924 5924 5925 5926 5926 5927 5928 5928 5929 5929 5930 5930 5930 5930 5930 5930 5930 5930 5931 5931 5931 5930 5930 5930 5930 5930 5930 5930 5929 5929 5928 5928 5928 5928 5928 5927 5926 5926 5926 5926 5925 5925 5924 5924 5924 5923 5922 5922 5922 5922 5922 5921 5920 5920 5919 5918 5918
5917 5917 5918 5918 5918 5918 5920 5920 5919 5919 5919 5919 5919 5919 5920 5920 5920 5920 5920 5920 5920 5919 5919 5919 5919 5918 5918 5918 5919 5920 5920 5920 5920 5921 5922 5922 5922 5922 5923 5924 5924 5925 5926 5926 5927 5928 5928 5929 5930 5930 5930 5930 5930 5930 5931 5931 5931 5931 5931 5931 5931 5931 5931 5931 5930 5930 5930 5930 5930 5929 5929 5928 5928 5928 5928 5928 5927 5926 5926 5926 5926 5925 5924 5924 5924 5924 5923 5922 5922 5922 5922 5922 5920 5920 5919 5918 5918
5916 5916 5917 5918 5918 5918 5920 5920 5919 5919 5920 5920 5920 5920 5920 5920 5919 5920 5920 5920 5920 5920 5920 5920 5920 5919 5919 5919 5920 5920 5920 5920 5921 5921 5922 5922 5923 5924 5924 5924 5926 5926 5926 5927 5928 5928 5929 5930 5930 5930 5930 5930 5930 5931 5931 5931 5932 5932 5932 5932 5932 5931 5931 5931 5931 5930 5930 5930 5930 5930 5929 5929 5928 5928 5928 5928 5927 5927 5926 5926 5926 5926 5925 5924 5924 5924 5924 5923 5922 5922 5922 5921 5920 5920 5918 5918 5917
5915 5916 5916 5918 5918 5918 5919 5919 5918 5920 5920 5920 5920 5920 5920 5920 5919 5920 5920 5920 5921 5921 5920 5920 5920 5920 5920 5920 5920 5920 5920 5920 5921 5922 5922 5923 5924 5924 5925 5926 5926 5926 5927 5928 5928 5928 5929 5930 5930 5930 5930 5930 5931 5931 5931 5932 5932 5932 5932 5932 5932 5932 5932 5932 5932 5931 5931 5930 5930 5930 5929 5929 5928 5928 5928 5928 5928 5927 5926 5926 5926 5926 5925 5924 5924 5924 5924 5924 5923 5922 5922 5921 5920 5919 5918 5917 5916
5914 5915 5916 5916 5918 5918 5918 5918 5918 5920 5920 5920 5920 5920 5920 5920 5919 5920 5920 5920 5921 5922 5921 5921 5920 5920 5920 5920 5920 5920 5921 5921 5922 5922 5922 5923 5924 5924 5925 5926 5926 5927 5928 5928 5928 5929 5929 5930 5930 5930 5930 5930 5931 5931 5931 5932 5932 5932 5932 5932 5932 5932 5932 5932 5932 5932 5931 5930 5930 5930 5929 5928 5928 5928 5928 5928 5927 5927 5926 5926 5926 5925 5924 5924 5924 5924 5924 5924 5922 5922 5922 5920 5920 5918 5918 5917 5916
5912 5914 5914 5916 5917 5918 5918 5918 5918 5920 5920 5920 5920 5920 5920 5919 5918 5919 5920 5920 5921 5922 5922 5922 5921 5921 5921 5921 5921 5921 5921 5922 5922 5922 5923 5924 5924 5925 5926 5926 5927 5928 5928 5928 5928 5929 5930 5930 5930 5930 5930 5930 5930 5931 5931 5932 5932 5932 5932 5932 5932 5932 5932 5932 5932 5932 5931 5930 5930 5930 5929 5928 5928 5928 5928 5928 5927 5926 5926 5926 5925 5924 5924 5924 5924 5924 5924 5922 5922 5922 5920 5920 5919 5918 5918 5916 5916
5910 5911 5912 5914 5916 5917 5917 5918 5918 5919 5920 5920 5920 5920 5919 5918 5918 5918 5920 5921 5922 5922 5922 5922 5922 5922 5921 5921 5921 5921 5922 5922 5922 5923 5924 5924 5924 5925 5926 5926 5927 5928 5928 5928 5929 5930 5930 5930 5930 5930 5930 5930 5930 5931 5931 5931 5932 5932 5932 5932 5932 5931 5931 5931 5931 5930 5930 5930 5930 5930 5929 5928 5928 5928 5928 5927 5926 5926 5926 5925 5925 5924 5924 5924 5924 5923 5922 5922 5922 5921 5920 5920 5918 5918 5917 5916 5916
5908 5910 5912 5914 5916 5916 5916 5916 5918 5918 5918 5919 5920 5920 5919 5918 5918 5918 5920 5921 5922 5922 5922 5922 5922 5922 5922 5921 5921 5921 5922 5922 5922 5923 5924 5924 5924 5925 5926 5926 5927 5928 5928 5929 5929 5930 5930 5930 5930 5930 5930 5930 5930 5931 5931 5931 5931 5931 5931 5931 5930 5930 5930 5930 5930 5930 5930 5930 5930 5929 5928 5928 5928 5928 5927 5927 5926 5926 5926 5925 5924 5924 5924 5924 5924 5923 5922 5922 5921 5920 5920 5918 5918 5917 5916 5916 5915
5907 5909 5910 5912 5915 5916 5916 5916 5916 5917 5918 5918 5919 5919 5919 5918 5918 5918 5920 5920 5921 5922 5922 5922 5922 5922 5922 5921 5921 5921 5922 5922 5922 5923 5924 5924 5924 5925 5926 5926 5927 5928 5928 5928 5929 5929 5929 5929 5930 5930 5930 5930 5930 5930 5930 5930 5931 5931 5930 5930 5930 5930 5930 5930 5930 5930 5929 5929 5929 5928 5928 5928 5928 5927 5927 5926 5926 5926 5926 5925 5924 5924 5924 5924 5924 5923 5922 5921 5920 5920 5918 5917 5916 5916 5916 5915 5914
5906 5908 5910 5912 5914 5914 5914 5914 5915 5916 5916 5918 5918 5918 5918 5918 5917 5918 5918 5920 5920 5922 5922 5922 5922 5922 5922 5921 5921 5921 5921 5922 5922 5922 5922 5924 5924 5924 5925 5926 5926 5927 5928 5928 5928 5928 5928 5929 5929 5930 5930 5930 5930 5930 5930 5930 5930 5930 5930 5930 5930 5930 5930 5929 5929 5928 5928 5928 5928 5928 5928 5928 5927 5927 5926 5926 5926 5926 5925 5925 5924 5924 5924 5924 5923 5922 5922 5920 5920 5918 5917 5916 5916 5915 5914 5914 5914
5906 5908 5910 5912 5914 5914 5914 5913 5913 5914 5915 5916 5916 5917 5918 5918 5918 5917 5918 5919 5920 5920 5922 5922 5922 5922 5922 5922 5921 5921 5921 5922 5922 5922 5922 5922 5923 5924 5924 5925 5926 5926 5926 5927 5928 5928 5928 5928 5929 5929 5929 5930 5930 5930 5930 5930 5930 5930 5930 5930 5930 5930 5929 5929 5928 5928 5928 5928 5928 5927 5927 5926 5926 5926 5926 5926 5926 5926 5925 5924 5924 5924 5924 5922 5922 5922 5920 5920 5918 5918 5917 5916 5915 5914 5914 5913 5912
5904 5906 5908 5910 5912 5912 5912 5912 5912 5912 5913 5914 5914 5916 5916 5916 5917 5917 5917 5918 5919 5920 5920 5921 5921 5921 5922 5922 5922 5922 5922 5921 5922 5922 5922 5922 5922 5923 5924 5924 5925 5926 5926 5926 5926 5927 5928 5928 5928 5928 5928 5929 5929 5929 5929 5930 5929 5929 5929 5929 5929 5929 5928 5928 5928 5928 5928 5927 5926 5926 5926 5926 5926 5926 5926 5925 5925 5924 5924 5924 5923 5923 5922 5922 5921 5920 5920 5918 5918 5918 5916 5916 5914 5914 5912 5912 5911
5902 5904 5906 5908 5908 5910 5910 5911 5910 5910 5911 5912 5912 5914 5914 5914 5916 5916 5917 5918 5918 5920 5920 5920 5921 5921 5921 5921 5922 5922 5922 5922 5921 5921 5922 5922 5922 5922 5922 5924 5924 5925 5926 5926 5926 5926 5926 5927 5928 5928 5928 5928 5928 5928 5928 5928 5928 5928 5928 5928 5928 5928 5928 5928 5928 5927 5926 5926 5926 5926 5926 5926 5925 5924 5924 5924 5924 5924 5924 5923 5922 5922 5921 5920 5920 5919 5918 5918 5917 5916 5916 5914 5914 5912 5912 5910 5910
5900 5902 5904 5905 5906 5907 5908 5908 5908 5908 5909 5910 5911 5912 5912 5913 5914 5916 5916 5917 5918 5918 5920 5920 5920 5920 5920 5920 5921 5922 5922 5922 5921 5921 5921 5922 5922 5922 5922 5922 5923 5924 5924 5924 5925 5926 5926 5926 5926 5926 5927 5927 5927 5927 5928 5928 5928 5928 5928 5928 5928 5928 5928 5927 5926 5926 5926 5926 5926 5925 5925 5925 5924 5924 5924 5923 5923 5923 5922 5922 5922 5921 5920 5920 5919 5918 5918 5916 5916 5914 5914 5913 5912 5911 5910 5908 5908
5898 5900 5902 5904 5904 5905 5906 5906 5907 5907 5908 5908 5909 5910 5910 5912 5912 5914 5915 5916 5917 5918 5918 5919 5920 5920 5920 5920 5920 5920 5920 5920 5920 5920 5920 5921 5921 5921 5922 5922 5922 5922 5922 5923 5923 5924 5924 5925 5925 5926 5926 5926 5926 5926 5926 5927 5927 5927 5927 5927 5927 5927 5926 5926 5926 5926 5926 5925 5925 5924 5924 5924 5924 5924 5923 5922 5922 5922 5922 5922 5921 5920 5920 5919 5918 5917 5916 5915 5914 5913 5912 5911 5910 5909 5908 5907 5906
5896 5898 5900 5902 5904 5904 5905 5905 5906 5906 5906 5906 5907 5908 5909 5910 5912 5912 5914 5915 5916 5917 5918 5918 5918 5918 5919 5919 5919 5919 5920 5920 5920 5920 5920 5920 5920 5920 5920 5920 5920 5920 5920 5921 5922 5922 5923 5924 5924 5924 5924 5925 5925 5925 5926 5926 5926 5926 5926 5926 5926 5926 5926 5926 5925 5925 5924 5924 5924 5924 5924 5923 5922 5922 5922 5922 5921 5920 5920 5920 5919 5918 5918 5918 5916 5915 5914 5913 5912 5911 5910 5908 5908 5906 5906 5905 5904
5894 5897 5899 5902 5903 5903 5903 5903 5904 5904 5904 5904 5906 5906 5908 5908 5910 5911 5912 5914 5914 5916 5916 5916 5917 5918 5918 5918 5918 5918 5918 5918 5918 5918 5918 5918 5918 5918 5919 5919 5919 5919 5919 5920 5920 5920 5921 5922 5922 5923 5924 5924 5924 5924 5924 5925 5925 5925 5926 5926 5926 5925 5925 5924 5924 5924 5924 5924 5923 5922 5922 5922 5921 5921 5920 5920 5920 5919 5918 5918 5916 5916 5915 5914 5914 5912 5912 5910 5910 5908 5907 5906 5905 5904 5904 5902 5902
5892 5896 5898 5900 5900 5900 5900 5901 5902 5902 5903 5904 5904 5905 5906 5906 5908 5908 5910 5910 5912 5913 5914 5914 5916 5916 5916 5917 5917 5917 5917 5916 5916 5916 5916 5916 5916 5917 5917 5918 5918 5918 5918 5918 5918 5919 5920 5920 5921 5922 5922 5922 5923 5923 5924 5924 5924 5924 5924 5924 5924 5924 5924 5924 5924 5923 5922 5922 5921 5921 5920 5920 5920 5919 5918 5918 5917 5916 5916 5914 5914 5913 5912 5911 5910 5910 5908 5908 5907 5906 5904 5904 5902 5902 5900 5900 5900
5890 5894 5896 5896 5898 5898 5899 5900 5900 5900 5902 5902 5902 5903 5904 5904 5904 5906 5906 5908 5910 5911 5912 5913 5914 5914 5916 5916 5916 5916 5915 5915 5915 5915 5915 5915 5915 5916 5916 5916 5916 5917 5918 5918 5918 5918 5918 5919 5920 5920 5920 5921 5922 5922 5922 5922 5922 5922 5923 5923 5923 5923 5922 5922 5922 5921 5920 5920 5920 5919 5918 5918 5918 5916 5916 5915 5914 5914 5912 5912 5911 5910 5910 5908 5908 5907 5906 5905 5904 5904 5902 5902 5900 5900 5898 5898 5897
5889 5892 5893 5894 5896 5897 5898 5898 5898 5898 5898 5898 5900 5901 5900 5901 5904 5904 5904 5906 5908 5909 5910 5912 5912 5913 5914 5914 5915 5914 5914 5914 5914 5914 5914 5914 5914 5914 5915 5916 5916 5916 5916 5916 5917 5918 5918 5918 5918 5918 5919 5920 5920 5920 5920 5920 5920 5921 5921 5922 5922 5921 5921 5920 5920 5919 5918 5918 5918 5917 5916 5916 5915 5914 5913 5912 5912 5911 5910 5910 5909 5908 5908 5907 5906 5904 5904 5903 5902 5901 5900 5899 5898 5897 5896 5895 5894
5886 5889 5890 5891 5892 5893 5894 5894 5894 5894 5894 5895 5898 5898 5898 5900 5902 5902 5902 5904 5906 5907 5908 5910 5911 5912 5912 5914 5914 5914 5913 5913 5912 5912 5912 5912 5913 5913 5914 5914 5915 5916 5916 5916 5916 5916 5916 5916 5917 5917 5918 5918 5918 5918 5918 5918 5919 5919 5920 5920 5920 5919 5918 5918 5918 5917 5916 5916 5916 5915 5914 5914 5912 5912 5910 5910 5909 5908 5908 5908 5907 5906 5906 5904 5904 5902 5902 5900 5900 5898 5898 5896 5896 5894 5894 5892 5892
5882 5884 5886 5888 5888 5889 5890 5890 5890 5890 5889 5892 5896 5896 5897 5898 5900 5900 5902 5904 5906 5905 5906 5906 5908 5909 5910 5912 5912 5912 5912 5912 5912 5912 5911 5911 5911 5912 5912 5913 5914 5914 5914 5914 5914 5914 5914 5915 5915 5916 5916 5916 5916 5916 5916 5917 5917 5917 5918 5918 5917 5916 5916 5916 5915 5914 5914 5914 5913 5912 5912 5910 5910 5909 5908 5908 5907 5906 5906 5906 5905 5904 5903 5902 5901 5900 5899 5898 5897 5896 5895 5894 5893 5892 5890 5890 5888
5876 5878 5881 5884 5884 5885 5884 5885 5886 5884 5886 5892 5894 5894 5894 5894 5898 5900 5902 5904 5904 5902 5903 5904 5905 5906 5908 5910 5910 5911 5911 5911 5911 5910 5910 5910 5910 5910 5910 5911 5912 5912 5912 5912 5912 5912 5913 5913 5913 5914 5914 5914 5914 5914 5914 5914 5914 5915 5915 5915 5914 5914 5913 5912 5912 5912 5912 5910 5910 5909 5908 5908 5907 5906 5906 5905 5904 5904 5903 5902 5902 5902 5900 5900 5898 5898 5896 5896 5894 5894 5892 5892 5890 5889 5888 5886 5886
5870 5872 5876 5878 5878 5880 5879 5880 5880 5879 5883 5890 5892 5892 5890 5891 5896 5899 5900 5902 5902 5902 5902 5902 5902 5904 5904 5906 5908 5908 5908 5909 5910 5910 5909 5908 5908 5908 5908 5909 5910 5910 5910 5910 5910 5910 5911 5911 5911 5912 5912 5912 5912 5912 5912 5912 5912 5912 5912 5912 5912 5911 5910 5910 5910 5910 5908 5908 5907 5906 5906 5905 5904 5904 5903 5902 5902 5901 5900 5900 5899 5898 5898 5896 5896 5894 5894 5893 5892 5890 5890 5888 5888 5886 5885 5884 5882
5864 5866 5870 5872 5872 5873 5874 5874 5876 5877 5882 5887 5888 5888 5886 5889 5894 5896 5898 5900 5900 5901 5902 5901 5901 5901 5902 5903 5904 5904 5906 5906 5907 5908 5908 5907 5906 5906 5906 5907 5908 5908 5908 5908 5908 5908 5908 5909 5909 5910 5910 5910 5910 5910 5910 5910 5910 5910 5910 5910 5909 5908 5908 5908 5908 5907 5906 5905 5904 5904 5904 5902 5902 5902 5900 5900 5899 5898 5898 5896 5896 5895 5894 5894 5892 5892 5891 5890 5889 5888 5886 5886 5884 5883 5882 5881 5880
5862 5864 5868 5869 5868 5870 5871 5872 5874 5876 5880 5884 5884 5883 5884 5888 5892 5893 5895 5897 5898 5899 5900 5900 5900 5900 5900 5900 5900 5901 5902 5904 5905 5905 5906 5906 5905 5905 5905 5905 5906 5906 5906 5906 5906 5906 5906 5906 5906 5906 5907 5908 5908 5908 5907 5907 5906 5907 5907 5907 5906 5906 5906 5906 5905 5904 5904 5902 5902 5902 5901 5900 5900 5900 5898 5898 5896 5896 5894 5894 5893 5892 5892 5890 5890 5888 5888 5888 5886 5885 5884 5883 5882 5880 5880 5878 5877
5860 5862 5864 5864 5865 5870 5872 5872 5874 5876 5878 5879 5878 5878 5882 5886 5890 5890 5892 5894 5896 5896 5897 5898 5898 5898 5898 5899 5899 5900 5900 5901 5902 5903 5904 5904 5904 5904 5904 5904 5904 5904 5904 5904 5904 5904 5904 5904 5904 5904 5904 5904 5905 5905 5904 5904 5904 5905 5905 5904 5904 5904 5903 5903 5902 5902 5901 5900 5899 5898 5898 5898 5897 5896 5896 5895 5894 5893 5892 5891 5890 5889 5888 5888 5886 5886 5886 5884 5884 5882 5882 5880 5879 5878 5878 5876 5874
5854 5856 5856 5858 5864 5869 5869 5869 5871 5873 5874 5872 5872 5874 5878 5882 5886 5888 5890 5892 5894 5896 5896 5896 5897 5897 5898 5898 5898 5898 5898 5900 5900 5901 5902 5902 5902 5902 5902 5902 5902 5902 5902 5902 5902 5902 5901 5901 5902 5902 5902 5902 5903 5902 5902 5902 5902 5903 5903 5902 5902 5901 5900 5900 5900 5899 5898 5898 5896 5896 5895 5894 5894 5894 5893 5892 5891 5890 5888 5888 5887 5886 5885 5884 5884 5883 5882 5882 5880 5880 5878 5878 5876 5876 5874 5873 5872
5849 5850 5852 5858 5862 5864 5864 5866 5866 5867 5868 5866 5868 5872 5874 5876 5880 5884 5888 5890 5892 5894 5894 5896 5896 5896 5896 5897 5898 5898 5898 5898 5898 5898 5899 5900 5900 5900 5900 5900 5900 5900 5900 5900 5900 5900 5900 5899 5899 5899 5900 5900 5900 5900 5900 5900 5900 5901 5900 5900 5900 5899 5898 5898 5897 5896 5896 5894 5893 5892 5892 5892 5891 5890 5890 5889 5888 5886 5885 5884 5884 5883 5882 5881 5880 5880 5880 5878 5878 5876 5876 5874 5874 5872 5871 5870 5868
5843 5846 5852 5855 5855 5856 5859 5860 5858 5861 5862 5862 5864 5867 5869 5872 5876 5880 5884 5886 5888 5891 5892 5893 5894 5894 5896 5896 5896 5896 5896 5896 5896 5897 5897 5898 5898 5898 5898 5898 5898 5898 5898 5898 5898 5898 5898 5897 5897 5897 5898 5898 5898 5898 5898 5898 5898 5898 5898 5898 5897 5896 5896 5895 5894 5893 5892 5892 5890 5889 5888 5888 5888 5887 5886 5886 5885 5884 5882 5882 5880 5880 5879 5878 5878 5877 5876 5875 5874 5873 5872 5871 5870 5868 5867 5866 5865
5838 5841 5845 5848 5849 5852 5854 5856 5855 5858 5858 5858 5860 5862 5862 5868 5873 5878 5881 5884 5886 5888 5890 5890 5892 5892 5893 5893 5894 5894 5894 5894 5894 5895 5896 5896 5896 5896 5896 5896 5896 5896 5896 5896 5896 5896 5896 5895 5895 5896 5896 5896 5896 5896 5896 5896 5896 5896 5895 5894 5894 5893 5892 5892 5891 5890 5889 5888 5887 5886 5885 5884 5884 5882 5882 5882 5882 5880 5880 5879 5878 5876 5876 5875 5874 5874 5872 5872 5870 5870 5868 5866 5866 5864 5862 5862 5860
5832 5835 5836 5840 5844 5846 5848 5852 5852 5854 5854 5856 5857 5856 5857 5865 5872 5874 5878 5880 5882 5884 5886 5888 5889 5890 5890 5890 5891 5892 5892 5893 5893 5893 5894 5894 5894 5894 5894 5894 5894 5894 5894 5894 5893 5893 5893 5893 5893 5893 5893 5893 5893 5893 5893 5893 5893 5892 5892 5892 5891 5890 5890 5889 5888 5887 5886 5886 5884 5884 5882 5880 5879 5878 5878 5878 5878 5877 5876 5876 5874 5873 5872 5871 5870 5870 5869 5868 5866 5865 5864 5862 5861 5860 5858 5857 5856
5828 5831 5832 5836 5840 5842 5844 5846 5846 5848 5850 5850 5852 5852 5853 5861 5868 5872 5874 5877 5880 5882 5883 5885 5886 5887 5888 5888 5889 5890 5890 5891 5892 5892 5892 5892 5892 5892 5892 5892 5892 5892 5892 5892 5891 5891 5891 5890 5891 5891 5891 5891 5890 5890 5891 5890 5890 5890 5890 5888 5888 5888 5887 5886 5885 5884 5884 5884 5882 5880 5878 5877 5876 5874 5874 5874 5873 5872 5872 5872 5870 5868 5867 5866 5866 5866 5865 5864 5862 5861 5860 5859 5858 5856 5854 5853 5852